CZ-6A DEB

Satellite information

Favourite Embed

Satellite Type and Status

DEBRISIN ORBIT

Key statistics

Satellite CZ-6A DEB at a glance.

Uptime

274

Days in orbit

Revolutions

≈ 14.4

Per day

Orbit

LEO

Low Earth Orbit

Inclination

89.0

Latest

Satellite identification and parameters

Extended collection of information and parameters for CZ-6A DEB.

Object identification

Identified? True

Debris? True

Object name: CZ-6A DEB

International designator: 2024-140SS

Object number (NORAD): 61281

Object ID (CCSDS): 61281

Country: PEOPLES REPUBLIC OF CHINA (PRC)

Current information (Y/N): Y

RCS size: SMALL

Orbital parameters

Period: 100.029 minutes

Inclination: 89.0486 deg

SMA: 7137.995 km

Apoapsis: 806.029 km

Periapsis: 713.691 km

RAAN: 321.0967 deg

Eccentricy: 0.0064681

Argument of periapsis: 265.1651 deg

Mean anomaly: 94.2162 deg

Mean motion: 14.39588576 rev/day

Mean motion (dot): 0.00001332 rev/day2

B* drag term: 0.00041195 1/REarth

Two-line elements (TLE)

Creation date: May 7, 2025, 3:14 a.m.

Reference frame: TEME

Reference center: EARTH

Epoch: May 6, 2025, 12:12 p.m. UTC

TLE line 0: 0 CZ-6A DEB

TLE line 1: 1 61281U 24140SS 25126.50851643 .00001332 00000-0 41195-3 0 9999

TLE line 2: 2 61281 89.0486 321.0967 0064681 265.1651 94.2162 14.39588576 36283

Live tracking on map

Real-time ground track for satellite CZ-6A DEB.

In-orbit conjunctions

A list of the most updated potential collisions computed for object CZ-6A DEB.

Target Orbit TCA Probability of collision Miss distance Type
FENGYUN 1C DEB SSO 2025-02-25 19:11:24 0.0001802888 828.0 (m) DEBRIS
COSMOS 2251 DEB LEO 2025-02-02 01:13:23 0.0001275724 454.0 (m) DEBRIS
COSMOS 1538 LEO 2025-01-10 00:37:37 0.0004023028 368.0 (m) PAYLOAD
FENGYUN 1C DEB SSO 2025-01-04 01:31:45 0.0001117301 446.0 (m) DEBRIS
COSMOS 1867 COOLANT LEO 2024-11-28 11:07:25 0.0003603755 221.0 (m) DEBRIS

Associated space launch

18 Low Earth Orbit communication satellites with Ku, Q and V band payloads for the G60 constellation operated by Shanghai Spacecom Satellite Technology (SSST) with funding backed by the Shanghai local government. Initial constellation will consist of 1296 satellites by 2027 with long term plans to expand it to 12000 satellites.

CZ-6A DEB was lifted into orbit during the mission ‘Long March 6A | G60 Polar Group 01’, on board a Long March 6A space rocket.

The launch took place on Aug. 6, 2024, 6:42 a.m. from Launch Complex 9A.

For more information about the launch, click the button.

Launch to space Long March 6A | G60 Polar Group 01
Long March 6A | G60 Polar Group 01

Agency: N/A

Status: Launch Successful

Launch date: Aug. 6, 2024, 6:42 a.m. UTC

Rocket: Long March 6A

Launch pad: Launch Complex 9A

Location: Taiyuan Satellite Launch Center, People's Republic of China

...

Latest news about this satellite

News about space launch
Brightness of first Chinese broadband constellation satellites alarms astronomers

The first satellites of a Chinese broadband constellation are significantly brighter than those of Western systems, posing a new challenge for astronomers.

News about space launch
Chinese rocket stage breaks up into cloud of more than 700 pieces of space debris

HELSINKI — A Chinese Long March 6A rocket’s upper stage has fragmented into a cloud of over 700 pieces of space debris, adding to concerns about long-term orbital safety. China […]

News about space launch
China's Thousand Sails Megaconstellation Kicks Off with Dangerous Debris Field

China's Thousand Sails Megaconstellation Kicks Off with Dangerous Debris Field


Newsletter sign-up

Weekly statistics, charts and insights to help you stay on top of the space industry.